Aiken, SC

7:13 PM EDT on April 25, 2017 (GMT -0400)
Aiken Municipal

Weather History for KAIK - November, 2012

Change the Weather History Date:

Friday, November 16, 2012

  Actual Average Record
Temperature  
Mean Temperature 49 °F -  
Max Temperature 59 °F 68 °F 78 °F (2011)
Min Temperature 39 °F 40 °F 30 °F (2014)
Degree Days  
Heating Degree Days 16    
Moisture  
Dew Point 42 °F    
Average Humidity 83    
Maximum Humidity 100    
Minimum Humidity 51    
Precipitation  
Precipitation 0.00 in - - ()
Sea Level Pressure  
Sea Level Pressure 30.31 in    
Wind  
Wind Speed 5 mph (NNE)    
Max Wind Speed 10 mph    
Max Gust Speed -    
Visibility 10 miles    
Events Rain    
Averages and records for this station are not official NWS values.
T = Trace of Precipitation, MM = Missing Value Source: NWS Daily Summary

Daily Weather History Graph

Daily Weather History Graph

Search for Another Location

Airport or City:

Trip Planner

Search our weather history database for the weather conditions in past years. The results will help you decide how hot, cold, wet, or windy it might be!

Date:

Astronomy

Nov. 16, 2012 Rise Set
Actual Time 6:59 AM EST 5:22 PM EST
Civil Twilight 6:33 AM EST 5:49 PM EST
Nautical Twilight 6:03 AM EST 6:19 PM EST
Astronomical Twilight 5:33 AM EST 6:49 PM EST
Moon 9:50 AM EST (11/16) 8:22 PM EST (11/16)
Length of Visible Light 11h 16m
Length of Day
10h 23m
Waxing Crescent, 11% of the Moon is Illuminated
Nov 16
Waxing Crescent
Nov 20
First Quarter
Nov 28
Full
Dec 6
Last Quarter
Dec 13
New

Hourly Weather History & Observations

Time (EST) Temp. Windchill Dew Point Humidity Pressure Visibility Wind Dir Wind Speed Gust Speed Precip Events Conditions
12:15 AM 44.6 °F 43.1 °F 44.6 °F 100% 30.29 in 10.0 mi NNE 3.5 mph - N/A   Overcast
12:35 AM 44.6 °F 43.1 °F 44.6 °F 100% 30.28 in 10.0 mi NNE 3.5 mph - N/A   Overcast
12:55 AM 44.6 °F 40.7 °F 44.6 °F 100% 30.28 in 10.0 mi NNE 6.9 mph - N/A   Overcast
1:15 AM 42.8 °F 38.6 °F 42.8 °F 100% 30.28 in 10.0 mi North 6.9 mph - N/A   Overcast
1:35 AM 42.8 °F 38.6 °F 42.8 °F 100% 30.29 in 10.0 mi North 6.9 mph - N/A   Overcast
1:55 AM 42.8 °F 40.1 °F 42.8 °F 100% 30.29 in 10.0 mi North 4.6 mph - N/A   Overcast
2:15 AM 42.8 °F 40.1 °F 42.8 °F 100% 30.29 in 10.0 mi NNE 4.6 mph - N/A   Overcast
2:35 AM 42.8 °F 39.3 °F 42.8 °F 100% 30.29 in 10.0 mi North 5.8 mph - N/A   Overcast
2:55 AM 42.8 °F 39.3 °F 42.8 °F 100% 30.29 in 10.0 mi North 5.8 mph - N/A   Overcast
3:15 AM 42.8 °F 38.0 °F 42.8 °F 100% 30.28 in 10.0 mi North 8.1 mph - N/A   Overcast
3:35 AM 42.8 °F 38.0 °F 42.8 °F 100% 30.28 in 10.0 mi North 8.1 mph - N/A   Overcast
3:55 AM 42.8 °F 39.3 °F 42.8 °F 100% 30.28 in 10.0 mi NNE 5.8 mph - N/A   Overcast
4:35 AM 44.6 °F 41.4 °F 44.6 °F 100% 30.28 in 10.0 mi North 5.8 mph - N/A   Overcast
4:55 AM 44.6 °F 40.7 °F 42.8 °F 93% 30.28 in 10.0 mi North 6.9 mph - N/A   Overcast
5:15 AM 42.8 °F 39.3 °F 42.8 °F 100% 30.28 in 10.0 mi North 5.8 mph - N/A   Mostly Cloudy
5:35 AM 41.0 °F 38.0 °F 41.0 °F 100% 30.28 in 10.0 mi North 4.6 mph - N/A   Mostly Cloudy
5:55 AM 42.8 °F 40.1 °F 42.8 °F 100% 30.28 in 10.0 mi North 4.6 mph - N/A   Overcast
6:15 AM 42.8 °F 41.1 °F 42.8 °F 100% 30.28 in 10.0 mi NNE 3.5 mph - N/A   Overcast
6:35 AM 42.8 °F 41.1 °F 42.8 °F 100% 30.28 in 10.0 mi NNE 3.5 mph - N/A   Overcast
6:55 AM 42.8 °F 39.3 °F 42.8 °F 100% 30.28 in 10.0 mi NNE 5.8 mph - N/A   Overcast
7:15 AM 42.8 °F 40.1 °F 42.8 °F 100% 30.29 in 10.0 mi NNE 4.6 mph - N/A   Mostly Cloudy
7:35 AM 42.8 °F 40.1 °F 42.8 °F 100% 30.30 in 10.0 mi North 4.6 mph - N/A   Scattered Clouds
7:55 AM 42.8 °F 38.6 °F 41.0 °F 93% 30.31 in 10.0 mi North 6.9 mph - N/A   Clear
8:15 AM 42.8 °F 39.3 °F 41.0 °F 93% 30.32 in 10.0 mi North 5.8 mph - N/A   Clear
8:35 AM 44.6 °F 40.7 °F 41.0 °F 87% 30.32 in 10.0 mi North 6.9 mph - N/A   Clear
8:55 AM 46.4 °F 42.9 °F 41.0 °F 81% 30.33 in 10.0 mi NNE 6.9 mph - N/A   Clear
9:15 AM 46.4 °F 42.9 °F 42.8 °F 87% 30.33 in 10.0 mi NNE 6.9 mph - N/A   Clear
9:35 AM 46.4 °F 42.4 °F 42.8 °F 87% 30.33 in 10.0 mi NE 8.1 mph - N/A   Clear
9:55 AM 46.4 °F 43.5 °F 42.8 °F 87% 30.34 in 10.0 mi North 5.8 mph - N/A   Clear
10:15 AM 46.4 °F 42.4 °F 42.8 °F 87% 30.34 in 10.0 mi NNE 8.1 mph - N/A   Clear
10:35 AM 48.2 °F - 42.8 °F 82% 30.34 in 10.0 mi NNE 5.8 mph - N/A   Mostly Cloudy
10:55 AM 50.0 °F - 44.6 °F 82% 30.34 in 10.0 mi NNE 4.6 mph - N/A   Mostly Cloudy
11:15 AM 51.8 °F - 44.6 °F 76% 30.33 in 10.0 mi NNE 5.8 mph - N/A   Scattered Clouds
11:35 AM 51.8 °F - 44.6 °F 76% 30.33 in 10.0 mi NNE 5.8 mph - N/A   Mostly Cloudy
11:55 AM 53.6 °F - 44.6 °F 72% 30.33 in 10.0 mi East 5.8 mph - N/A   Scattered Clouds
12:15 PM 55.4 °F - 44.6 °F 67% 30.31 in 10.0 mi NNE 8.1 mph - N/A   Mostly Cloudy
12:35 PM 55.4 °F - 44.6 °F 67% 30.30 in 10.0 mi ENE 4.6 mph - N/A   Mostly Cloudy
12:55 PM 55.4 °F - 44.6 °F 67% 30.30 in 10.0 mi NNE 5.8 mph - N/A   Scattered Clouds
1:15 PM 55.4 °F - 44.6 °F 67% 30.29 in 10.0 mi NNE 4.6 mph - N/A   Scattered Clouds
1:35 PM 57.2 °F - 44.6 °F 63% 30.29 in 10.0 mi NNW 6.9 mph - N/A   Clear
1:55 PM 59.0 °F - 44.6 °F 59% 30.29 in 10.0 mi NE 8.1 mph - N/A   Scattered Clouds
2:15 PM 59.0 °F - 42.8 °F 55% 30.28 in 10.0 mi North 5.8 mph - N/A   Scattered Clouds
2:35 PM 59.0 °F - 42.8 °F 55% 30.28 in 10.0 mi NNE 10.4 mph - N/A   Clear
2:55 PM 57.2 °F - 42.8 °F 59% 30.28 in 10.0 mi NE 8.1 mph - N/A   Clear
3:15 PM 59.0 °F - 42.8 °F 55% 30.28 in 10.0 mi ENE 4.6 mph - N/A   Clear
3:35 PM 59.0 °F - 41.0 °F 51% 30.28 in 10.0 mi NE 9.2 mph - N/A   Clear
3:55 PM 59.0 °F - 41.0 °F 51% 30.28 in 10.0 mi NNE 9.2 mph - N/A   Clear
4:15 PM 57.2 °F - 41.0 °F 55% 30.28 in 10.0 mi NE 4.6 mph - N/A   Clear
4:35 PM 57.2 °F - 41.0 °F 55% 30.28 in 7.0 mi NE 4.6 mph - N/A Rain Light Rain
4:55 PM 55.4 °F - 41.0 °F 58% 30.29 in 10.0 mi ENE 4.6 mph - N/A   Clear
5:15 PM 53.6 °F - 41.0 °F 62% 30.28 in 10.0 mi NE 4.6 mph - N/A   Clear
5:35 PM 53.6 °F - 41.0 °F 62% 30.28 in 10.0 mi Calm Calm - N/A   Clear
5:55 PM 50.0 °F - 41.0 °F 71% 30.29 in 10.0 mi Calm Calm - N/A   Clear
6:15 PM 48.2 °F - 42.8 °F 82% 30.30 in 10.0 mi Calm Calm - N/A   Clear
6:35 PM 46.4 °F - 41.0 °F 81% 30.31 in 10.0 mi Calm Calm - N/A   Clear
6:55 PM 46.4 °F - 41.0 °F 81% 30.31 in 10.0 mi Calm Calm - N/A   Clear
7:15 PM 44.6 °F - 41.0 °F 87% 30.32 in 10.0 mi Calm Calm - N/A   Clear
7:55 PM 42.8 °F - 41.0 °F 93% 30.33 in 10.0 mi Calm Calm - N/A   Clear
8:15 PM 44.6 °F - 41.0 °F 87% 30.33 in 10.0 mi Calm Calm - N/A   Clear
8:55 PM 41.0 °F - 41.0 °F 100% 30.35 in 10.0 mi Calm Calm - N/A   Clear
9:15 PM 42.8 °F 41.1 °F 39.2 °F 87% 30.35 in 10.0 mi NE 3.5 mph - N/A   Clear
9:35 PM 44.6 °F 42.2 °F 39.2 °F 81% 30.35 in 10.0 mi ENE 4.6 mph - N/A   Clear
9:55 PM 42.8 °F 40.1 °F 39.2 °F 87% 30.36 in 10.0 mi ENE 4.6 mph - N/A   Clear
10:15 PM 42.8 °F 41.1 °F 39.2 °F 87% 30.36 in 10.0 mi ENE 3.5 mph - N/A   Clear
10:35 PM 42.8 °F - 39.2 °F 87% 30.36 in 10.0 mi Calm Calm - N/A   Clear
10:55 PM 41.0 °F - 37.4 °F 87% 30.36 in 10.0 mi Calm Calm - N/A   Clear
11:15 PM 39.2 °F - 35.6 °F 87% 30.36 in 10.0 mi Calm Calm - N/A   Clear
11:35 PM 41.0 °F - 39.2 °F 93% 30.36 in 10.0 mi Calm Calm - N/A   Clear
11:55 PM 41.0 °F 38.0 °F 37.4 °F 87% 30.36 in 10.0 mi ENE 4.6 mph - N/A   Clear